Regional Weather Roundup
Issued by NWS Charleston, SC

Current Version | Previous Version | Graphics & Text | Print | Product List | Glossary On
Versions: 1 2 3 4 5 6 7 8 9 10 11 12 13 14 15 16 17 18 19 20 21 22 23 24 25 26 27 28 29 30 31 32 33 34 35 36 37 38 39 40 41 42 43 44 45 46 47 48 49 50
000
ASUS42 KCHS 061413
RWRCHS

REGIONAL WEATHER ROUNDUP
NATIONAL WEATHER SERVICE CHARLESTON SC
1000 AM EDT FRI MAY 06 2016

NOTE: "FAIR" INDICATES FEW OR NO CLOUDS BELOW 12,000 FEET WITH NO
SIGNIFICANT WEATHER AND/OR OBSTRUCTIONS TO VISIBILITY.

NOT ALL STATIONS ARE QUALITY CONTROLLED. USE DATA WITH CAUTION...
ESPECIALLY DEWPOINT OBSERVATIONS.

SCZ027-030-031-034>040-042>050-061500-
...SOUTHEAST SOUTH CAROLINA...

CITY           SKY/WX    TMP DP  RH WIND       PRES   REMARKS
N CHARLESTON   PTSUNNY   60  46  59 W12       29.83R
WATERFRONT PRK   N/A     58  47  66 W6        29.81F
MOUNT PLEASANT FAIR      63  48  59 NW8       29.82S
JOHNS ISLAND   FAIR      63  46  55 NW10G16   29.83S
PINOPOLIS        N/A     61  50  67 W9        29.72F
MONCKS CORNER  PTSUNNY   57  45  62 W5        29.82S
SUMMERVILLE    NOT AVBL
BEAUFORT MCAS  MOSUNNY   61  46  57 W9        29.86S
BEAUFORT ARPT  PTSUNNY   61  45  55 W10       29.85S HAZE
HILTON HEAD IS NOT AVBL
WALTERBORO     SUNNY     63  46  55 W12       29.85S
ALLENDALE      CLOUDY    59  46  63 VRB5      29.86R

...SOUTHERN MIDLANDS AND PEE DEE...

CITY           SKY/WX    TMP DP  RH WIND       PRES   REMARKS
GEORGETOWN     FAIR      59  46  63 NW9       29.81R
KINGSTREE      PTSUNNY   59  45  58 NW9       29.80S
ORANGEBURG     SUNNY     61  45  55 W12       29.83S
BARNWELL       PTSUNNY   61  48  63 SW6       29.86S
AIKEN          PTSUNNY   61  45  55 NW10      29.89R
MANNING        PTSUNNY   59  45  58 NW5       29.81S
COLUMBIA       MOSUNNY   64  45  49 NW9G20    29.82R
SUMTER         SUNNY     61  47  62 NW14      29.79R
FLORENCE       MOSUNNY   60  49  66 NW8       29.79R
MYRTLE BEACH   PTSUNNY   57  45  62 NW13      29.80R
N MYRTLE BEACH CLOUDY    56  49  77 W9        29.77R

$$

GAZ063-065-086>088-099>101-113>116-118-119-134>141-150-061500-
...SOUTHEAST GEORGIA...

CITY           SKY/WX    TMP DP  RH WIND       PRES   REMARKS
SAVANNAH ARPT  MOSUNNY   61  45  55 W8        29.87F
HUNTER AAF     SUNNY     60  47  62 NW6       29.85S
FORT STEWART   SUNNY     60  44  56 NW3       29.87R
STATESBORO     SUNNY     62  49  62 NW6       29.88R
SYLVANIA       SUNNY     61  48  64 NW5       29.88R
CLAXTON        FAIR      60  48  63 NW7       29.90R

...CSRA...CENTRAL AND FAR SOUTHEAST GEORGIA...

CITY           SKY/WX    TMP DP  RH WIND       PRES   REMARKS
THOMSON        SUNNY     60  49  67 W5        29.93R
AUGUSTA-BUSH   PTSUNNY   61  45  55 NW9       29.87R
AUGUSTA-DANIEL MOSUNNY   61  44  53 W8        29.88R
SWAINSBORO     FAIR      59  45  58 NW5       29.90R
VIDALIA        SUNNY     59  45  58 W7        29.91R
EASTMAN        FAIR      60  46  59 NW6       29.94S
HAZLEHURST     FAIR      59  45  60 N5        29.91R
ALMA           SUNNY     58  44  60 NW8       29.91R
WAYCROSS       SUNNY     59  45  60 N6        29.91R
JESUP          FAIR      61  46  59 NW7       29.90R
BAXLEY         FAIR      59  45  58 N7        29.91R
BRUNSWICK      SUNNY     66  50  55 W7        29.90R
SAINT SIMONS   SUNNY     59  46  62 VRB6      29.88R

$$

SCZ027-028-034-036>038-045-046-048>050-GAZ119-141-061500-
...LAKE AND SUPPLEMENTAL COASTAL OBSERVATIONS...

STATION/POSITION TIME  TEMP    WIND        PRES    WAVE   SWELL
                       AIR SEA DIR/SP/G            HT/PER HT/PER/DIR
                 (UTC) (F)     (DEG/KT/KT) (MB)    (FT/S) (FT/S/D)
WINYAH BAY       1245   55     300/  8     1008.0
LAKE MURRAY      1300   59     300/  4/  9 1009.5R
ACE BASIN NERRS  NOT AVBL
FORT PULASKI     1300   55 71  290/ 12/ 15 1011.5R
SAPELO ISLAND    1300   56     310/  9     1012.0R

$$

ANZ835-935-AMZ111-154-330-350-352-354-370-450-454-472-061500-
...C-MAN AND BUOY OBSERVATIONS...

STATION/POSITION TIME  TEMP    WIND        PRES    WAVE   SWELL
                       AIR SEA DIR/SP/G            HT/PER HT/PER/DIR
                 (UTC) (F)     (DEG/KT/KT) (MB)    (FT/S) (FT/S/D)
BUOY 41004       1250   59 72  300/ 16/ 19 1008.9    4/ 5
BUOY 41008       NOT AVBL
FOLLY BEACH CMAN 1300   58     280/  6/ 10 1010.2R
CAPERS NEARSHORE NOT AVBL
FRIPP NEARSHORE  1308   59 68  300/ 14/ 19 1010.0R


STATION/POSITION TIME  TEMP    WIND        PRES    WAVE   SWELL
                       AIR SEA DIR/SP/G            HT/PER HT/PER/DIR
                 (UTC) (F)     (DEG/KT/KT) (MB)    (FT/S) (FT/S/D)
5E ST. MARYS GA  1321      70                N/A     3/ 4
FRYING PAN BUOY  1300   58 72  280/ 17/ 23 1007.3R
BUOY 41025       1250   61 76  270/ 14/ 21 1004.8    5/ 8   5/ 70/ 8
CAPE LOOKOUT NC  1300   55     260/ 13/ 15 1005.5R
BUOY 41002       1250   70 73  280/ 12/ 19 1007.7    8/ 9   7/230/ 9
BUOY 41010       1320   72 79  290/ 16/ 17 1009.6R
ST AUGUSTINE FL  1400   59 69  280/  8/ 10 1013.2R


$$



USA.gov is the U.S. government's official web portal to all federal, state and local government web resources and services.